TimeEDT,TemperatureF,Dew PointF,Humidity,Sea Level PressureIn,VisibilityMPH,Wind Direction,Wind SpeedMPH,Gust SpeedMPH,PrecipitationIn,Events,Conditions,WindDirDegrees,DateUTC
12:56 AM,60.1,46.0,60,30.10,10.0,Calm,Calm,-,N/A,,Clear,0,2013-09-15 04:56:00
1:56 AM,59.0,46.0,62,30.09,10.0,Calm,Calm,-,N/A,,Clear,0,2013-09-15 05:56:00
2:56 AM,55.9,46.9,72,30.10,10.0,SSE,3.5,-,N/A,,Clear,160,2013-09-15 06:56:00
3:56 AM,54.0,46.9,77,30.10,10.0,SE,3.5,-,N/A,,Clear,130,2013-09-15 07:56:00
4:56 AM,54.0,48.0,80,30.11,10.0,Calm,Calm,-,N/A,,Clear,0,2013-09-15 08:56:00
5:56 AM,53.1,46.9,80,30.10,10.0,Calm,Calm,-,N/A,,Clear,0,2013-09-15 09:56:00
6:56 AM,53.1,48.0,83,30.11,10.0,Calm,Calm,-,N/A,,Mostly Cloudy,0,2013-09-15 10:56:00
7:56 AM,53.1,48.0,83,30.12,10.0,ESE,3.5,-,N/A,,Mostly Cloudy,110,2013-09-15 11:56:00
8:56 AM,55.9,48.9,77,30.13,10.0,Calm,Calm,-,N/A,,Mostly Cloudy,0,2013-09-15 12:56:00
9:56 AM,60.1,51.1,72,30.14,10.0,SE,3.5,-,N/A,,Mostly Cloudy,140,2013-09-15 13:56:00
10:56 AM,64.9,52.0,63,30.13,10.0,Variable,3.5,-,N/A,,Mostly Cloudy,0,2013-09-15 14:56:00
11:56 AM,70.0,54.0,57,30.12,10.0,SW,4.6,-,N/A,,Overcast,230,2013-09-15 15:56:00
12:56 PM,75.0,54.0,48,30.11,10.0,Calm,Calm,-,N/A,,Overcast,0,2013-09-15 16:56:00
1:56 PM,78.1,55.9,46,30.09,10.0,South,11.5,-,N/A,,Overcast,180,2013-09-15 17:56:00
2:56 PM,80.1,57.0,45,30.07,10.0,SW,11.5,19.6,N/A,,Overcast,230,2013-09-15 18:56:00
3:56 PM,80.1,55.9,43,30.06,10.0,SSW,10.4,-,N/A,,Mostly Cloudy,210,2013-09-15 19:56:00
4:56 PM,80.1,57.0,45,30.05,10.0,SW,10.4,16.1,N/A,,Scattered Clouds,220,2013-09-15 20:56:00
5:56 PM,80.1,55.0,42,30.04,10.0,SW,13.8,-,N/A,,Scattered Clouds,230,2013-09-15 21:56:00
6:56 PM,78.1,55.9,46,30.05,10.0,SW,12.7,-,N/A,,Mostly Cloudy,230,2013-09-15 22:56:00
7:56 PM,75.0,57.0,53,30.05,10.0,SW,6.9,-,N/A,,Scattered Clouds,220,2013-09-15 23:56:00
8:56 PM,73.0,57.9,59,30.05,10.0,SSW,3.5,-,N/A,,Scattered Clouds,210,2013-09-16 00:56:00
9:56 PM,72.0,57.9,61,30.04,10.0,South,8.1,-,N/A,,Scattered Clouds,180,2013-09-16 01:56:00
10:56 PM,70.0,57.9,65,30.05,10.0,SW,4.6,-,N/A,,Scattered Clouds,230,2013-09-16 02:56:00
11:56 PM,70.0,59.0,68,30.06,10.0,SSW,4.6,-,N/A,,Mostly Cloudy,210,2013-09-16 03:56:00